Location: ???????
(55.4362°N, 38.1183°E)
Time: 18:38:42
(UTC+00:00)

OPS 8737 - Pass Details

Date: 26 October 2021
Orbit: 356 x 1703 km, 63.3° (Epoch: 11 October)

Event Time Altitude Azimuth Distance (km) Brightness Sun altitude
Rises 14:39:27 0° 281° (W) 2,387 9.5 -5.9°
Reaches altitude 10° 14:42:00 10° 300° (WNW) 1,417 7.7 -6.3°
Maximum altitude 14:44:17 19° 350° (N) 947 6.0 -6.6°
Drops below altitude 10° 14:46:28 10° 40° (NE) 1,345 6.3 -6.9°
Enters shadow 14:47:08 - 48° (NE) 1,577 6.6 -7.0°
